This is the latest recevied weather packets stored in our database for station/object K7CTM. If no packets are shown the sender has not sent any weather packets the latest 10 day(s).
| Time | Temp. | Humidity | Pressure | Rain* | Wind** | Luminosity | Snow |
|---|---|---|---|---|---|---|---|
| 1777515597 | 7.78° C | 54% | 1031.7 hPa | 0 mm | - | 4 W/m² | - |
| 1777515294 | 7.78° C | 54% | 1031.7 hPa | 0 mm | - | 7 W/m² | - |
| 1777514990 | 8.33° C | 53% | 1031.6 hPa | 0 mm | - | 9 W/m² | - |
| 1777514686 | 8.89° C | 53% | 1031.7 hPa | 0 mm | - | 12 W/m² | - |
| 1777514384 | 8.89° C | 53% | 1031.6 hPa | 0 mm | - | 15 W/m² | - |
| 1777514080 | 9.44° C | 50% | 1031.7 hPa | 0 mm | - | 19 W/m² | - |
| 1777513777 | 9.44° C | 50% | 1031.7 hPa | 0 mm | - | 24 W/m² | - |
| 1777513475 | 10° C | 48% | 1031.5 hPa | 0 mm | - | 29 W/m² | - |
| 1777513171 | 10° C | 49% | 1031.5 hPa | 0 mm | - | 31 W/m² | - |
| 1777512867 | 10° C | 48% | 1031.6 hPa | 0 mm | - | 36 W/m² | - |
| 1777512564 | 10° C | 47% | 1031.5 hPa | 0 mm | - | 42 W/m² | - |
| 1777512261 | 10.56° C | 49% | 1031.4 hPa | 0 mm | - | 46 W/m² | - |
| 1777511957 | 10.56° C | 47% | 1031.5 hPa | 0 mm | - | 52 W/m² | - |
| 1777511655 | 10.56° C | 47% | 1031.7 hPa | 0 mm | - | 59 W/m² | - |
| 1777511353 | 10.56° C | 47% | 1031.5 hPa | 0 mm | - | 66 W/m² | - |
| 1777511048 | 10° C | 48% | 1031.5 hPa | 0 mm | - | 75 W/m² | - |
| 1777510745 | 10° C | 48% | 1031.4 hPa | 0 mm | - | 91 W/m² | - |
| 1777510442 | 10° C | 50% | 1031.6 hPa | 0 mm | - | 117 W/m² | - |
| 1777510137 | 9.44° C | 51% | 1031.5 hPa | 0 mm | - | 125 W/m² | - |
| 1777509835 | 9.44° C | 55% | 1031.6 hPa | 0 mm | - | 119 W/m² | - |
| 1777509530 | 8.89° C | 53% | 1031.6 hPa | 0 mm | - | 117 W/m² | - |
| 1777509227 | 9.44° C | 52% | 1031.9 hPa | 0 mm | - | 60 W/m² | - |
| 1777508924 | 10.56° C | 47% | 1031.5 hPa | 0 mm | - | 40 W/m² | - |
| 1777508621 | 11.11° C | 45% | 1031.7 hPa | 0 mm | - | 57 W/m² | - |
| 1777508319 | 11.11° C | 45% | 1031.3 hPa | 0 mm | - | 91 W/m² | - |
* Rain latest hour (hover to see other rain measurements)
** Current wind speed in m/s (hover to see current wind gust speed)